Regional Weather Roundup
Issued by NWS

Home | Current Version | Previous Version | Text Only | Print | Product List | Glossary Off
Versions: 1 2 3 4 5 6 7 8 9 10 11 12 13 14 15 16 17 18 19 20 21 22 23 24 25 26 27 28 29 30 31 32 33 34 35 36 37 38 39 40 41 42 43 44 45 46 47 48 49 50

000
ASUS45 KBOU 031307
RWRCO

WEATHER ROUNDUP FOR COLORADO
NATIONAL WEATHER SERVICE DENVER/BOULDER CO
700 AM MDT THU SEP 03 2015

NOTE: "FAIR" INDICATES FEW OR NO CLOUDS BELOW 12000 FEET WITH NO
SIGNIFICANT WEATHER AND/OR OBSTRUCTIONS TO VISIBILITY.

COZ001>005-013-030-031-031400-
...NORTHWEST COLORADO...

CITY           SKY/WX    TMP DP  RH WIND       PRES   REMARKS
CRAIG          MOCLDY    49  45  86 CALM      30.13R
HAYDEN         NOT AVBL
MEEKER         MOCLDY    52  48  86 NE3       30.15R
MOUNT WERNER   NOT AVBL
STEAMBOAT SPGS MOCLDY    47  44  88 CALM      30.19R
WALDEN         MOCLDY    46  41  81 SE5       30.26R
$$

COZ006>008-011-031400-
...WEST CENTRAL VALLEYS...

CITY           SKY/WX    TMP DP  RH WIND       PRES   REMARKS
GRAND JUNCTION CLOUDY    67  50  54 SE10      30.05R
MONTROSE       TSTM      61  55  81 S17       30.17R
EAGLE          CLEAR     54  43  66 CALM      30.22S
RIFLE          MOCLDY    57  51  80 CALM      30.12R
DELTA          CLOUDY    65  51  61 E6        30.12R HAZE
NUCLA          CLOUDY    59  54  82 E8        30.21R
$$

COZ017>023-064>068-031400-
...SOUTHWEST COLORADO...

CITY           SKY/WX    TMP DP  RH WIND       PRES   REMARKS
DURANGO        CLOUDY    59  50  72 CALM      30.23R
CORTEZ         MOCLDY    59  56  89 NE6       30.17F
PAGOSA SPRINGS CLOUDY    53  47  78 CALM      30.29R
TELLURIDE      DRIZZLE   50  49  97 SE3       30.39S
WOLF CREEK PAS NOT AVBL
$$

COZ009-010-012-014-032>034-037-058>063-031400-
...CENTRAL COLORADO...

CITY           SKY/WX    TMP DP  RH WIND       PRES   REMARKS
ASPEN          CLOUDY    53  44  71 SW6       30.24F
BUENA VISTA    CLOUDY    54  43  65 NW7       30.28S
COPPER MTN     MOCLDY    48  36  61 W13       30.54S
BERTHOUD PASS  MOCLDY    41  30  65 NW13G20   30.58S
COTTONWOOD PAS CLOUDY    55  37  50 CALM      30.39S
GUNNISON       CLOUDY    48  45  87 CALM      30.31S
KREMMLING      MOCLDY    50  45  81 CALM      30.27R
LEADVILLE      MOCLDY    44  41  89 CALM      30.38F
MONARCH PASS   CLOUDY    43  36  75 SW13      30.62S
SALIDA         CLOUDY    59  43  54 NW12      30.31S
SUNLIGHT       CLOUDY    48  43  81 CALM      30.46F
WILKERSON PASS CLOUDY    50  34  53 NW3       30.50S
$$

COZ069>075-031400-
...SAN LUIS VALLEY/SANGRE DE CRISTO MOUNTAINS...

CITY           SKY/WX    TMP DP  RH WIND       PRES   REMARKS
ALAMOSA        MOCLDY    49  47  93 CALM      30.26S
LA VETA PASS   MOCLDY    46  37  71 S16G23    30.37S
SAGUACHE       CLOUDY    52  43  71 NW12      30.29S
$$

COZ035-036-038>040-031400-
...NORTHERN COLORADO FRONT RANGE...

CITY           SKY/WX    TMP DP  RH WIND       PRES   REMARKS
DENVER INTL AP CLOUDY    69  42  37 SW7       30.04R
DMNS CITY PARK   N/A     66  47  49 E7        30.04R
AURORA         MOCLDY    66  44  45 S6        30.06R
FRONT RANGE AP NOT AVBL
ERIE MUNI ARPT CLOUDY    60  50  68 CALM      30.02R
BOULDER MUN AP CLOUDY    66  45  45 SW3       30.03R
CENTENNIAL     MOCLDY    65  46  50 S3        30.07R
BROOMFIELD     CLOUDY    68  43  40 CALM      30.05R
FORT COLLINS   MOCLDY    61  48  63 CALM      30.02S
LONGMONT       MOCLDY    61  51  68 CALM      30.03R
$$

COZ041-046-047-076>085-087-088-031400-
...PIKES PEAK/PALMER DIVIDE AND SOUTHERN FOOTHILLS...

CITY           SKY/WX    TMP DP  RH WIND       PRES   REMARKS
COLO. SPRINGS  CLOUDY    70  41  34 N9        30.08R
A. F. ACADEMY  CLOUDY    65  42  43 N9        30.10S
ELLICOTT       CLOUDY   N/A N/A N/A MISG      30.06S
FALCON         CLOUDY    67  39  35 MISG      30.14R
FORT CARSON    CLOUDY    67  44  43 NW8       30.05R
LIMON          MOCLDY    64  45  49 NW3       30.02S
MONUMENT HILL  CLOUDY    61  41  48 W7        30.16R
TRINIDAD       PTCLDY    58  44  60 W10       30.07S
$$

COZ042>045-048>051-090-091-031400-
...NORTHEAST COLORADO...

CITY           SKY/WX    TMP DP  RH WIND       PRES   REMARKS
GREELEY ARPT   MOCLDY    57  48  72 CALM      30.00R
AKRON          PTCLDY    66  43  43 W9        29.96S
BURLINGTON     PTCLDY    61  52  72 W6        29.92F
WRAY           CLOUDY    56  49  75 W6        29.90S
STERLING       PTCLDY    59  52  77 CALM      29.93S
HOLYOKE        CLEAR     63  52  67 NW3       29.91R
FORT MORGAN    PTCLDY    59  48  67 W3        29.96S
$$

COZ086-089-092>099-031400-
...SOUTHEAST COLORADO...

CITY           SKY/WX    TMP DP  RH WIND       PRES   REMARKS
PUEBLO         PTCLDY    64  44  48 W5        29.96F
LA JUNTA       PTCLDY    68  46  45 W6        29.93S
LAMAR          CLOUDY    65  56  72 CALM      29.89S
SPRINGFIELD      N/A     65  51  60 W5        29.97R
$$



USA.gov is the U.S. government's official web portal to all federal, state and local government web resources and services.